When you browse on this site, cookies collect data to enhance your experience and personalize the content and advertising you see.
Visit our Privacy Policy to learn more. By continuing to use the site, you agree to this use of cookies and data.
  • In Schweiz
  • Länderverzeichnis
  • Für 7 Tage
  • Wassertemperatur
  • Satellitenkarten
  • Wetterkarte
  • Widgets
  • user-avatar
    Anmelden

    Stündliche Wetter Algier

    Heute, 25 Mai, Samstag

    Zeit Temperatur Niederschläge Wind Luftdruck Luftfeuchtigkeit
    00:00 +19°C° 0 mm 6 m/S 745 mmHg 77%
    01:00 +19°C° 0.1 mm 5 m/S 745 mmHg 78%
    02:00 +17°C° 0.1 mm 5 m/S 745 mmHg 80%
    03:00 +17°C° 0.1 mm 5 m/S 745 mmHg 81%
    04:00 +18°C° 0 mm 4 m/S 745 mmHg 80%
    05:00 +18°C° 0 mm 4 m/S 745 mmHg 78%
    06:00 +19°C° 0 mm 4 m/S 745 mmHg 77%
    07:00 +19°C° 0 mm 4 m/S 746 mmHg 72%
    08:00 +20°C° 0 mm 4 m/S 746 mmHg 68%
    09:00 +21°C° 0 mm 4 m/S 746 mmHg 63%
    10:00 +21°C° 0.1 mm 4 m/S 746 mmHg 61%
    11:00 +22°C° 0.1 mm 4 m/S 746 mmHg 58%
    12:00 +22°C° 0.1 mm 5 m/S 746 mmHg 56%
    13:00 +22°C° 0.4 mm 5 m/S 746 mmHg 55%
    14:00 +22°C° 0.4 mm 5 m/S 746 mmHg 53%
    15:00 +22°C° 0.4 mm 5 m/S 746 mmHg 52%
    16:00 +21°C° 0.1 mm 4 m/S 746 mmHg 55%
    17:00 +21°C° 0.1 mm 4 m/S 747 mmHg 58%
    18:00 +20°C° 0.1 mm 3 m/S 747 mmHg 61%
    19:00 +19°C° 0 mm 2 m/S 747 mmHg 64%
    20:00 +20°C° 0 mm 1 m/S 747 mmHg 67%
    21:00 +19°C° 0 mm 1 m/S 748 mmHg 70%
    22:00 +19°C° 0.2 mm 1 m/S 748 mmHg 72%
    23:00 +18°C° 0.2 mm 2 m/S 748 mmHg 74%

    Morgen, 26 Mai, Sonntag

    Zeit Temperatur Niederschläge Wind Luftdruck Luftfeuchtigkeit
    00:00 +17°C° 0.2 mm 2 m/S 747 mmHg 77%
    01:00 +17°C° 0.5 mm 2 m/S 747 mmHg 77%
    02:00 +17°C° 0.5 mm 2 m/S 747 mmHg 78%
    03:00 +17°C° 0.5 mm 2 m/S 747 mmHg 79%
    04:00 +18°C° 0.5 mm 3 m/S 747 mmHg 78%
    05:00 +18°C° 0.5 mm 3 m/S 747 mmHg 78%
    06:00 +18°C° 0.5 mm 4 m/S 747 mmHg 78%
    07:00 +18°C° 1.1 mm 4 m/S 748 mmHg 76%
    08:00 +19°C° 1.1 mm 5 m/S 748 mmHg 74%
    09:00 +19°C° 1.1 mm 6 m/S 748 mmHg 72%
    10:00 +19°C° 0.8 mm 5 m/S 748 mmHg 71%
    11:00 +19°C° 0.8 mm 5 m/S 748 mmHg 71%
    12:00 +19°C° 0.8 mm 5 m/S 748 mmHg 70%
    13:00 +20°C° 0.6 mm 4 m/S 748 mmHg 70%
    14:00 +20°C° 0.6 mm 4 m/S 748 mmHg 69%
    15:00 +20°C° 0.6 mm 4 m/S 748 mmHg 68%
    16:00 +20°C° 0.1 mm 3 m/S 748 mmHg 67%
    17:00 +20°C° 0.1 mm 3 m/S 748 mmHg 67%
    18:00 +20°C° 0.1 mm 2 m/S 748 mmHg 66%
    19:00 +19°C° 0 mm 2 m/S 749 mmHg 67%
    20:00 +20°C° 0 mm 1 m/S 749 mmHg 69%
    21:00 +19°C° 0 mm 1 m/S 749 mmHg 70%
    22:00 +19°C° 0 mm 1 m/S 749 mmHg 71%
    23:00 +18°C° 0 mm 2 m/S 749 mmHg 72%

    übermorgen, 27 Mai, Montag

    Zeit Temperatur Niederschläge Wind Luftdruck Luftfeuchtigkeit
    00:00 +17°C° 0 mm 2 m/S 748 mmHg 72%
    01:00 +17°C° 0 mm 2 m/S 748 mmHg 72%
    02:00 +17°C° 0 mm 2 m/S 748 mmHg 72%
    03:00 +17°C° 0 mm 2 m/S 748 mmHg 72%
    04:00 +17°C° 0 mm 2 m/S 748 mmHg 70%
    05:00 +18°C° 0 mm 2 m/S 748 mmHg 68%
    06:00 +18°C° 0 mm 2 m/S 748 mmHg 67%
    07:00 +20°C° 0 mm 2 m/S 748 mmHg 61%
    08:00 +21°C° 0 mm 2 m/S 748 mmHg 55%
    09:00 +24°C° 0 mm 2 m/S 748 mmHg 49%
    10:00 +24°C° 0 mm 2 m/S 748 mmHg 46%
    11:00 +25°C° 0 mm 2 m/S 748 mmHg 43%
    12:00 +26°C° 0 mm 2 m/S 748 mmHg 40%
    13:00 +26°C° 0 mm 3 m/S 747 mmHg 40%
    14:00 +26°C° 0 mm 3 m/S 747 mmHg 40%
    15:00 +26°C° 0 mm 3 m/S 747 mmHg 41%
    16:00 +25°C° 0 mm 3 m/S 747 mmHg 44%
    17:00 +24°C° 0 mm 3 m/S 747 mmHg 47%
    18:00 +24°C° 0 mm 3 m/S 747 mmHg 51%
    19:00 +22°C° 0 mm 3 m/S 747 mmHg 53%
    20:00 +21°C° 0 mm 3 m/S 747 mmHg 54%
    21:00 +20°C° 0 mm 2 m/S 748 mmHg 56%
    22:00 +20°C° 0 mm 2 m/S 747 mmHg 56%
    23:00 +20°C° 0 mm 2 m/S 747 mmHg 56%

    28 Mai, Dienstag

    Zeit Temperatur Niederschläge Wind Luftdruck Luftfeuchtigkeit
    00:00 +20°C° 0 mm 2 m/S 747 mmHg 56%
    01:00 +20°C° 0 mm 2 m/S 747 mmHg 54%
    02:00 +19°C° 0 mm 2 m/S 746 mmHg 53%
    03:00 +19°C° 0 mm 2 m/S 746 mmHg 52%
    04:00 +20°C° 0 mm 2 m/S 746 mmHg 51%
    05:00 +20°C° 0 mm 2 m/S 747 mmHg 50%
    06:00 +21°C° 0 mm 2 m/S 747 mmHg 49%
    07:00 +24°C° 0 mm 2 m/S 747 mmHg 44%
    08:00 +26°C° 0 mm 1 m/S 747 mmHg 39%
    09:00 +28°C° 0 mm 1 m/S 747 mmHg 34%
    10:00 +28°C° 0 mm 2 m/S 747 mmHg 33%
    11:00 +29°C° 0 mm 3 m/S 747 mmHg 32%
    12:00 +30°C° 0 mm 4 m/S 747 mmHg 31%
    13:00 +29°C° 0 mm 4 m/S 746 mmHg 33%
    14:00 +29°C° 0 mm 5 m/S 746 mmHg 34%
    15:00 +29°C° 0 mm 5 m/S 746 mmHg 36%
    16:00 +28°C° 0 mm 4 m/S 746 mmHg 39%
    17:00 +27°C° 0 mm 4 m/S 746 mmHg 42%
    18:00 +26°C° 0 mm 4 m/S 746 mmHg 45%
    19:00 +25°C° 0 mm 3 m/S 746 mmHg 50%
    20:00 +24°C° 0 mm 3 m/S 747 mmHg 54%
    21:00 +22°C° 0 mm 3 m/S 747 mmHg 58%
    22:00 +21°C° 0 mm 3 m/S 747 mmHg 60%
    23:00 +21°C° 0 mm 3 m/S 748 mmHg 62%

    29 Mai, Mittwoch

    Zeit Temperatur Niederschläge Wind Luftdruck Luftfeuchtigkeit
    00:00 +21°C° 0 mm 3 m/S 748 mmHg 64%
    01:00 +20°C° 0 mm 3 m/S 748 mmHg 68%
    02:00 +20°C° 0 mm 4 m/S 748 mmHg 73%
    03:00 +19°C° 0 mm 4 m/S 748 mmHg 77%
    04:00 +19°C° 0 mm 4 m/S 748 mmHg 78%
    05:00 +19°C° 0 mm 5 m/S 748 mmHg 79%
    06:00 +19°C° 0 mm 5 m/S 749 mmHg 79%
    07:00 +20°C° 0 mm 6 m/S 749 mmHg 74%
    08:00 +21°C° 0 mm 6 m/S 749 mmHg 69%
    09:00 +22°C° 0 mm 6 m/S 749 mmHg 64%
    10:00 +23°C° 0 mm 7 m/S 749 mmHg 62%
    11:00 +23°C° 0 mm 7 m/S 750 mmHg 59%
    12:00 +24°C° 0 mm 7 m/S 750 mmHg 57%
    13:00 +24°C° 0 mm 7 m/S 749 mmHg 58%
    14:00 +23°C° 0 mm 8 m/S 749 mmHg 59%
    15:00 +23°C° 0 mm 8 m/S 749 mmHg 59%
    16:00 +22°C° 0 mm 8 m/S 750 mmHg 63%
    17:00 +21°C° 0 mm 8 m/S 750 mmHg 66%
    18:00 +21°C° 0 mm 8 m/S 750 mmHg 69%
    19:00 +20°C° 0 mm 8 m/S 751 mmHg 71%
    20:00 +18°C° 0 mm 7 m/S 751 mmHg 73%
    21:00 +18°C° 0 mm 7 m/S 752 mmHg 75%
    22:00 +17°C° 0 mm 7 m/S 752 mmHg 75%
    23:00 +17°C° 0 mm 7 m/S 752 mmHg 75%

    30 Mai, Donnerstag

    Zeit Temperatur Niederschläge Wind Luftdruck Luftfeuchtigkeit
    00:00 +17°C° 0 mm 7 m/S 752 mmHg 75%
    01:00 +17°C° 0 mm 7 m/S 752 mmHg 73%
    02:00 +17°C° 0 mm 7 m/S 752 mmHg 71%
    03:00 +17°C° 0 mm 7 m/S 752 mmHg 69%
    04:00 +17°C° 0 mm 7 m/S 753 mmHg 66%
    05:00 +17°C° 0 mm 7 m/S 753 mmHg 64%
    06:00 +17°C° 0 mm 6 m/S 753 mmHg 62%
    07:00 +18°C° 0 mm 7 m/S 753 mmHg 57%
    08:00 +20°C° 0 mm 7 m/S 753 mmHg 52%
    09:00 +22°C° 0 mm 7 m/S 754 mmHg 47%
    10:00 +22°C° 0 mm 8 m/S 754 mmHg 46%
    11:00 +23°C° 0 mm 8 m/S 754 mmHg 45%
    12:00 +23°C° 0 mm 8 m/S 754 mmHg 44%
    13:00 +23°C° 0 mm 8 m/S 753 mmHg 45%
    14:00 +23°C° 0 mm 8 m/S 753 mmHg 46%
    15:00 +23°C° 0 mm 8 m/S 753 mmHg 47%
    16:00 +22°C° 0 mm 8 m/S 753 mmHg 49%
    17:00 +21°C° 0 mm 7 m/S 753 mmHg 51%
    18:00 +21°C° 0 mm 7 m/S 754 mmHg 53%
    19:00 +20°C° 0 mm 6 m/S 754 mmHg 55%
    20:00 +19°C° 0 mm 6 m/S 754 mmHg 56%
    21:00 +17°C° 0 mm 5 m/S 755 mmHg 57%
    22:00 +18°C° 0 mm 4 m/S 755 mmHg 57%
    23:00 +18°C° 0 mm 4 m/S 754 mmHg 57%
    Mehr zeigen